Temp
-20 -21 -21 -22 -22 -23 -23 -24 -24 -25 -25 -25 -25 -25 -25 -24 -24 -24 -24 -24 -24 -23 -23 -22 -22 -21 -20
-22 -22 -23 -24 -23 -23 -24 -25 -26 -25 -25 -25 -26 -26 -25 -25 -25 -25 -25 -24 -24 -24 -24 -23 -23 -23 -22
-24 -24 -24 -24 -25 -25 -25 -25 -26 -26 -26 -26 -26 -26 -27 -27 -26 -26 -26 -25 -25 -25 -24 -24 -24 -24 -23
-25 -24 -25 -26 -26 -26 -25 -26 -26 -27 -27 -27 -27 -27 -27 -27 -27 -27 -27 -26 -25 -24 -25 -24 -24 -24 -24
-25 -26 -26 -26 -26 -26 -26 -26 -27 -28 -28 -28 -28 -28 -28 -28 -28 -28 -28 -28 -27 -25 -25 -24 -24 -24 -24
-26 -27 -27 -27 -27 -27 -27 -27 -27 -30 -29 -30 -29 -29 -29 -29 -29 -29 -30 -29 -29 -26 -25 -24 -24 -24 -24
-28 -28 -27 -27 -27 -27 -27 -28 -28 -29 -30 -29 -30 -30 -30 -30 -30 -30 -30 -30 -29 -27 -25 -24 -24 -24 -24
-28 -28 -27 -27 -27 -27 -27 -27 -27 -28 -29 -29 -29 -29 -30 -30 -30 -30 -30 -29 -29 -27 -25 -24 -24 -24 -24
-28 -27 -27 -27 -27 -27 -27 -26 -26 -27 -28 -28 -29 -28 -29 -29 -29 -29 -28 -28 -27 -26 -25 -24 -24 -24 -24
-27 -27 -27 -27 -27 -27 -26 -26 -26 -27 -27 -27 -28 -27 -28 -28 -28 -28 -27 -27 -26 -25 -24 -24 -24 -23 -23
-27 -27 -26 -26 -25 -25 -25 -25 -25 -26 -26 -26 -26 -27 -27 -27 -26 -26 -26 -26 -26 -25 -24 -24 -24 -23 -23
-26 -26 -25 -25 -25 -25 -24 -24 -24 -25 -25 -25 -26 -26 -26 -26 -26 -26 -26 -26 -25 -24 -23 -23 -23 -23 -23
-26 -25 -25 -24 -24 -24 -25 -24 -25 -25 -25 -25 -25 -25 -26 -26 -26 -26 -26 -25 -25 -24 -23 -23 -23 -23 -23
-26 -25 -25 -25 -25 -24 -24 -25 -25 -24 -24 -24 -24 -25 -26 -26 -26 -26 -26 -25 -25 -24 -24 -24 -23 -23 -23
-26 -26 -25 -25 -25 -25 -24 -24 -24 -24 -24 -24 -24 -25 -26 -26 -26 -26 -26 -25 -25 -25 -24 -24 -23 -23 -23
-26 -25 -25 -25 -25 -24 -24 -24 -24 -24 -24 -24 -24 -25 -25 -25 -25 -25 -25 -25 -25 -25 -25 -25 -24 -24 -24
-26 -26 -25 -25 -25 -25 -24 -24 -24 -24 -24 -23 -24 -24 -24 -24 -24 -24 -24 -24 -24 -23 -23 -24 -24 -24 -23
Height
5412 5401 5389 5374 5365 5344 5330 5323 5319 5316 5310 5306 5303 5302 5299 5298 5298 5301 5303 5306 5315 5327 5340 5349 5361 5373 5393
5382 5370 5355 5347 5338 5327 5314 5304 5297 5295 5286 5283 5279 5273 5271 5272 5275 5278 5281 5285 5290 5300 5312 5329 5338 5349 5361
5347 5341 5332 5320 5311 5304 5295 5288 5280 5272 5264 5260 5253 5249 5249 5249 5251 5253 5255 5259 5266 5274 5288 5303 5317 5330 5340
5320 5315 5306 5301 5287 5277 5276 5268 5262 5252 5243 5238 5231 5229 5229 5226 5227 5228 5230 5233 5240 5250 5264 5281 5297 5311 5324
5300 5292 5286 5278 5267 5262 5253 5250 5244 5228 5223 5223 5215 5214 5210 5206 5205 5205 5205 5208 5213 5224 5239 5258 5276 5293 5309
5283 5274 5269 5259 5253 5246 5237 5231 5229 5216 5211 5212 5202 5201 5197 5194 5190 5187 5186 5187 5189 5197 5214 5236 5258 5278 5295
5268 5260 5253 5246 5241 5238 5232 5224 5220 5213 5205 5205 5196 5193 5188 5185 5180 5176 5173 5172 5174 5181 5197 5220 5242 5262 5280
5257 5249 5241 5238 5232 5228 5224 5219 5213 5206 5196 5195 5190 5186 5182 5177 5172 5166 5162 5162 5164 5172 5188 5210 5232 5250 5267
5249 5241 5235 5229 5222 5216 5211 5207 5204 5198 5190 5183 5183 5179 5174 5170 5164 5157 5154 5153 5156 5166 5180 5201 5221 5239 5255
5246 5239 5231 5224 5216 5208 5202 5198 5195 5191 5182 5180 5177 5171 5168 5162 5157 5152 5150 5150 5155 5163 5175 5193 5212 5230 5247
5240 5232 5225 5218 5212 5206 5201 5195 5191 5187 5180 5176 5172 5168 5163 5159 5154 5152 5150 5150 5154 5161 5172 5189 5207 5224 5242
5232 5226 5221 5216 5210 5204 5199 5194 5188 5183 5179 5174 5171 5166 5162 5158 5155 5153 5152 5153 5156 5162 5171 5183 5199 5216 5233
5230 5224 5218 5213 5208 5203 5197 5190 5184 5179 5174 5171 5167 5165 5163 5160 5158 5156 5156 5157 5161 5167 5175 5185 5196 5211 5227
5227 5222 5217 5212 5208 5203 5198 5193 5187 5180 5174 5170 5167 5166 5165 5163 5162 5162 5163 5165 5170 5175 5182 5190 5200 5211 5223
5229 5224 5219 5215 5210 5205 5201 5196 5189 5183 5178 5174 5171 5169 5168 5168 5169 5169 5171 5174 5179 5185 5192 5200 5209 5218 5229
5231 5226 5223 5218 5214 5208 5204 5199 5193 5188 5184 5181 5178 5175 5174 5174 5175 5178 5181 5185 5191 5195 5200 5209 5217 5225 5232
5232 5228 5224 5220 5216 5211 5207 5202 5198 5194 5190 5186 5186 5184 5182 5183 5184 5186 5189 5193 5198 5202 5208 5214 5221 5227 5235
Wind_Speed
92 88 83 82 80 84 84 79 75 71 70 69 68 66 67 67 67 66 65 70 81 83 79 83 90 95 100
85 81 81 79 77 74 71 70 69 66 65 64 63 65 65 65 64 64 65 65 69 81 80 76 79 77 86
84 80 78 74 69 65 64 62 61 62 64 62 61 60 58 58 58 59 62 65 66 74 80 76 73 68 70
84 79 71 63 62 60 55 55 56 58 57 56 59 59 59 59 59 59 61 63 68 67 81 77 72 66 64
78 70 63 57 55 53 53 48 46 51 52 48 53 51 49 50 49 51 55 56 62 69 74 79 73 66 62
68 62 54 52 49 45 41 37 26 32 37 32 41 37 37 37 38 41 43 44 51 63 72 80 72 65 61
60 56 49 47 38 28 28 31 27 27 33 27 27 23 26 30 32 34 33 36 40 54 66 78 71 65 61
54 48 46 34 34 36 37 32 29 26 31 25 30 27 28 31 33 39 39 29 29 45 59 74 68 63 59
44 39 37 41 45 48 46 37 25 23 29 32 26 27 31 32 31 33 25 20 23 37 51 70 66 63 59
29 33 40 44 48 49 40 28 20 16 28 27 22 27 23 26 26 21 13 12 17 29 43 66 65 63 59
34 39 40 37 32 26 24 21 19 16 23 19 21 22 19 16 16 7 4 5 13 23 35 56 62 62 58
32 27 26 22 20 23 26 26 27 25 19 20 18 19 18 13 9 4 2 6 12 19 29 44 58 60 59
22 22 22 20 21 24 24 22 20 20 20 17 17 16 15 9 6 4 8 13 16 18 22 28 39 49 54
22 22 20 18 17 17 19 20 22 21 19 13 14 9 12 11 10 11 16 19 23 24 26 28 31 35 39
21 20 20 19 18 19 19 21 24 23 18 18 15 14 13 14 14 17 21 25 29 32 32 34 36 39 38
18 18 18 17 17 18 19 21 23 27 18 18 16 17 15 17 19 23 26 30 33 32 32 28 33 34 31
19 19 19 18 19 20 21 21 21 22 25 15 16 17 17 17 21 26 28 30 33 30 27 31 30 31 33
Wind_Direction
302 301 299 296 295 295 295 293 290 287 285 283 281 279 274 270 266 263 258 252 244 241 241 240 240 238 233
306 304 302 300 299 295 290 289 290 291 287 285 282 279 275 271 268 264 259 255 248 238 235 238 240 240 238
307 305 304 303 297 294 290 291 290 288 287 287 283 279 275 272 268 263 259 254 249 241 231 232 236 236 236
307 307 305 303 301 298 294 292 292 289 286 284 280 280 278 274 270 266 261 255 248 241 230 227 230 230 230
308 309 309 307 301 300 303 300 294 288 284 284 280 282 283 280 276 268 262 258 246 235 229 223 224 225 225
310 311 310 308 307 314 312 313 306 292 290 293 289 287 284 283 278 274 267 259 247 230 223 218 219 221 221
314 314 312 311 316 320 327 327 326 314 310 320 296 295 297 301 299 291 280 264 248 227 218 214 216 217 218
313 314 313 318 318 319 320 323 323 308 302 309 295 290 284 286 287 283 282 272 247 223 216 210 213 216 216
316 315 316 316 317 320 322 328 327 314 290 296 294 302 293 282 286 294 285 259 227 214 214 207 209 213 214
313 312 312 311 313 317 325 334 331 324 295 299 305 302 298 291 296 300 289 245 216 212 212 205 206 209 211
317 313 311 316 324 328 334 340 339 332 319 336 324 324 318 310 316 321 311 223 202 198 202 205 206 207 210
324 327 329 331 334 332 330 326 326 324 312 316 320 329 338 334 342 6 79 152 172 179 190 200 206 207 209
337 339 341 336 334 335 339 346 356 354 345 329 311 314 343 8 44 98 123 137 143 156 171 184 196 204 208
1 3 6 8 7 8 6 1 2 3 4 13 17 8 50 57 92 116 132 135 137 142 147 155 163 173 182
7 10 15 17 16 16 17 19 22 22 23 31 45 52 69 88 110 125 130 132 134 135 141 147 154 159 167
6 10 12 12 13 18 20 23 24 29 35 46 58 67 95 112 124 129 132 134 133 130 142 146 158 164 170
1 0 0 3 8 13 15 18 25 26 30 50 63 79 93 114 130 137 139 143 147 148 153 158 151 160 168